Regional Weather Roundup
Issued by NWS

Home | Current Version | Previous Version | Text Only | Print | Product List | Glossary Off
Versions: 1 2 3 4 5 6 7 8 9 10 11 12 13 14 15 16 17 18 19 20 21 22 23 24 25 26 27 28 29 30 31 32 33 34 35 36 37 38 39 40 41 42 43 44 45 46 47 48 49 50

000
ASUS45 KTFX 230410
RWRMT
MONTANA REGIONAL WEATHER ROUNDUP
NATIONAL WEATHER SERVICE GREAT FALLS MT
1000 PM MDT SUN OCT 22 2017

NOTE: "FAIR" INDICATES FEW OR NO CLOUDS BELOW 12000 FEET WITH NO
SIGNIFICANT WEATHER AND/OR OBSTRUCTIONS TO VISIBILITY.

MTZ001>007-043-230500-
WEST OF THE DIVIDE

CITY           SKY/WX    TMP DP  RH WIND       PRES   REMARKS
KALISPELL      CLOUDY    47  34  60 SW7       30.24R
MISSOULA       LGT RAIN  45  37  73 VRB3      30.34R
BUTTE          CLOUDY    41  27  57 W10G18    30.30R
MULLAN PASS    CLOUDY    34  26  72 VRB6G18   30.30R WCI  29
ANACONDA         N/A     43  27  52 W13       30.32R
DEER LODGE       N/A     39  32  75 CALM      30.32R
EUREKA           N/A     48  30  49 MISG      30.22R
HAMILTON         N/A     43  30  61 CALM      30.36R
LIBBY            N/A     46  36  66 SE3       30.25R
PLAINS           N/A     51  31  46 S6        30.30R
$$

MTZ008-052>055-230500-
SOUTHWEST MONTANA

CITY           SKY/WX    TMP DP  RH WIND       PRES   REMARKS
BOZEMAN        CLOUDY    45  28  51 W16       30.28R
DILLON         CLOUDY    42  22  44 W13       30.32R
W YELLOWSTONE  CLOUDY    37  34  87 CALM      30.30R
ENNIS          CLOUDY    41  25  52 CALM      30.33S
THREE FORKS      N/A     47  23  38 W10       30.24R
TWIN BRIDGES     N/A     45  20  37 CALM      30.27R
$$

MTZ009-010-012-014-046-048-049-054-230500-
EAST SLOPES AND CENTRAL MONTANA

CITY           SKY/WX    TMP DP  RH WIND       PRES   REMARKS
CUT BANK       CLEAR     40  30  67 W18G29    30.07R
GREAT FALLS    CLEAR     43  24  47 SW18      30.12R
MALMSTROM AFB  CLEAR     44  28  51 SW20G25   30.12R
HELENA         CLOUDY    48  27  44 W20G30    30.25R
BOWMANS CRNR     N/A     41  22  45 SW16      30.17R
CHOTEAU          N/A     46  23  39 W31G41    30.10F
FAIRFIELD        N/A     44  22  42 W20       30.10R
POWER            N/A     41  23  49 W12       30.10R
RAYNESFORD       N/A     46  24  42 SW30G40   30.11R
ULM              N/A     45  28  52 SW24G36   30.13R
$$

MTZ011-013-016-021-045-047-050-051-230500-
NORTH CENTRAL MONTANA

CITY           SKY/WX    TMP DP  RH WIND       PRES   REMARKS
HAVRE          CLOUDY    47  28  47 W22       30.00R
LEWISTOWN      CLEAR     46  21  37 W23G39    30.08R
N BAR RANCH      N/A     45  18  33 NW22G32   30.08R
CHINOOK          N/A     46  28  49 SW9       29.99R
DENTON           N/A     47  24  41 W25       30.04R
GEYSER           N/A     46  22  39 W24G35    30.09R
GRASS RANGE      N/A     49  21  33 W31G45    30.02R
JUDITH GAP       N/A     44  17  33 W32G45    30.09R
STANFORD         N/A     46  18  33 W36G44    30.10R
WINIFRED         N/A     48  21  34 W29G39    30.05R
$$

MTZ017>020-022>027-061-062-230500-
NORTHEAST MONTANA

CITY           SKY/WX    TMP DP  RH WIND       PRES   REMARKS
GLASGOW        CLOUDY    47  38  71 W23G38    29.89R
JORDAN           N/A     50  32  50 NW24G35   29.95R
SIDNEY         PTCLDY    53  34  48 W32G40    29.76R
WOLF POINT     LGT RAIN  50  38  63 W17G25    29.85R
MALTA          MOCLDY    48  37  66 NW18G26   29.96R
PLENTYWOOD       N/A     48  34  57 W12       29.73R
POPLAR           N/A     50  36  57 NW13      29.81R
SCOBEY           N/A     43  30  60 W15       29.79R
$$

MTZ028>42-056>058-230500-
SOUTHCENTRAL AND SOUTHEAST MONTANA

CITY           SKY/WX    TMP DP  RH WIND       PRES   REMARKS
BAKER          CLEAR     45  40  82 W13       29.91R
BILLINGS       CLEAR     51  20  29 W28G43    30.09R
LIVINGSTON     CLOUDY    48  23  37 W26G35    30.21R
MILES CITY     CLEAR     52  29  41 NW22G31   29.95R
BIG TIMBER     PTCLDY    46  21  36 NW26G39   30.22R
FORSYTH          N/A     55  21  26 W22G35    29.99R
HARLOWTON        N/A     45  21  39 W39G49    30.11R
LAUREL           N/A     52  21  30 W14G22    30.13R
$$

REGIONAL REPORTS...DAKOTAS

CITY           SKY/WX    TMP DP  RH WIND       PRES   REMARKS
WILLISTON      LGT RAIN  52  36  54 W17       29.73R
MINOT          MOCLDY    55  40  56 W20G25    29.62R
DICKINSON      MOCLDY    51  35  54 W17G29    29.78R
BEACH          CLOUDY    48  37  66 W18       29.88R
CROSBY           N/A     48  30  49 W15G24    29.69R
TIOGA            N/A     50  36  57 NW16G26   29.71R
BISMARCK       CLOUDY    57  40  52 W12       29.71R
GRAND FORKS    MOCLDY    55  35  47 S12       29.58F
FARGO          MOCLDY    57  32  38 S12       29.65F
BUFFALO SD       N/A     48  42  80 W15       29.85R
RAPID CITY     CLOUDY    60  35  39 NW33G48   29.95R
$$

REGIONAL REPORTS...WYOMING/IDAHO/WASHINGTON

CITY           SKY/WX    TMP DP  RH WIND       PRES   REMARKS
GILLETTE       CLOUDY    50  36  58 NW16      30.07R
SHERIDAN       CLOUDY    52  36  54 NW23G32   30.07R
BUFFALO WY     CLOUDY    50  36  58 N25G33    30.09R
CODY           PTCLDY    48  37  65 NE9       30.13R
YELLOWSTONE LA   N/A     36  34  92 VRB7      30.30R WCI  30
IDAHO FALLS    PTCLDY    50  38  63 S21       30.30R
SALMON         CLOUDY    42  32  67 CALM      30.37R
BOISE          CLOUDY    53  47  79 W3        30.41R
SPOKANE        CLOUDY    47  36  65 W14       30.33R
$$

REGIONAL REPORTS...ALBERTA

CITY           SKY/WX    TMP DP  RH WIND       PRES   REMARKS
EDMONTON       CLEAR     37  32  81 W7        29.84R
CALGARY        PTCLDY    45  19  36 W17G23    29.97R
LETHBRIDGE     CLEAR     45  23  42 W20G25    30.02R
MEDICINE HAT   CLEAR     46  32  57 W15G21    29.93R
$$

REGIONAL REPORTS...SASKATCHEWAN

CITY           SKY/WX    TMP DP  RH WIND       PRES   REMARKS
SWIFT CURRENT  MOCLDY    41  30  65 W16G23    29.80R
REGINA         MOCLDY    37  34  87 NW12      29.71R WCI  30
SASKATOON      MOCLDY    37  36  93 W9        29.74R WCI  31
$$



USA.gov is the U.S. government's official web portal to all federal, state and local government web resources and services.